Torna al catalogo

STARLINK-34353

AttivoComunicazioniVLEO
NORAD 64278·PAYLOAD·🇺🇸 United States

Lanciato Jun 4, 2025 da Vandenberg Space Force Base

Loading…

Prossimi Passaggi (prossime 24 ore)

TLE

AggiornatoSource: CelesTrak SupGP

Epoca: Sep 15, 2026, 03:40 UTC

1 64278C 25120Y   26258.15326389  .00038296  00000+0  11310-2 0  2580
2 64278  53.1598 314.5536 0001357  84.8083 268.6451 15.34384023    10

Traccia STARLINK-34353 in tempo reale con AllMySat

Download on the App Store